Weather History for VTBD - December, 2012

Change the Weather History Date:

Thursday, December 27, 2012

  Actual Average Record
Temperature  
Mean Temperature 83 °F -  
Max Temperature 90 °F 88 °F 93 °F (2007)
Min Temperature 76 °F 72 °F 57 °F (1999)
Cooling Degree Days 18    
Growing Degree Days 33 (Base 50)    
Moisture  
Dew Point 67 °F    
Average Humidity 59    
Maximum Humidity 78    
Minimum Humidity 42    
Precipitation  
Precipitation 0.00 in 0.01 in - ()
Sea Level Pressure  
Sea Level Pressure 29.81 in    
Wind  
Wind Speed 5 mph ()    
Max Wind Speed 10 mph    
Max Gust Speed -    
Visibility 5.3 miles    
Events      
Averages and records for this station are not official NWS values.
T = Trace of Precipitation, MM = Missing Value Source: Averaged Metar Reports

Daily Weather History Graph

Daily Weather History Graph

Search for Another Location

Airport or City:

Trip Planner

Search our weather history database for the weather conditions in past years. The results will help you decide how hot, cold, wet, or windy it might be!

Date:

Astronomy

Dec. 27, 2012 Rise Set
Actual Time 6:39 AM ICT 5:58 PM ICT
Civil Twilight 6:16 AM ICT 6:21 PM ICT
Nautical Twilight 5:49 AM ICT 6:47 PM ICT
Astronomical Twilight 5:23 AM ICT 7:14 PM ICT
Moon 5:10 PM ICT (12/27) 5:29 AM ICT (12/27)
Length of Visible Light 12h 05m
Length of Day
11h 18m
Waxing Gibbous, 99% of the Moon is Illuminated
Dec 27
Waxing Gibbous
Dec 28
Full
Jan 5
Last Quarter
Jan 12
New
Jan 19
First Quarter

Hourly Weather History & Observations

Time (ICT) Temp. Heat Index Dew Point Humidity Pressure Visibility Wind Dir Wind Speed Gust Speed Precip Events Conditions
12:00 AM 80.6 °F 83.9 °F 69.8 °F 70% 29.86 in 4.3 mi North 6.9 mph - N/A   Mostly Cloudy
12:30 AM 80.6 °F 83.9 °F 69.8 °F 70% 29.86 in 4.3 mi NNE 5.8 mph - N/A   Mostly Cloudy
1:00 AM 80 °F - 69 °F 61% 29.87 in 4 mi North 4.6 mph - -   Mist
1:00 AM 80.6 °F 83.2 °F 68.0 °F 65% 29.86 in 4.3 mi North 4.6 mph - N/A   Mostly Cloudy
1:30 AM 78.8 °F - 68.0 °F 69% 29.83 in 4.3 mi North 6.9 mph - N/A   Mostly Cloudy
2:00 AM 78.8 °F - 68.0 °F 69% 29.83 in 4.3 mi North 4.6 mph - N/A   Mostly Cloudy
2:30 AM 78.8 °F - 68.0 °F 69% 29.83 in 4.3 mi North 3.5 mph - N/A   Mostly Cloudy
3:00 AM 78.8 °F - 68.0 °F 69% 29.80 in 4.3 mi NNW 4.6 mph - N/A   Mostly Cloudy
3:30 AM 78.8 °F - 68.0 °F 69% 29.80 in 4.3 mi NNW 5.8 mph - N/A   Mostly Cloudy
4:00 AM 77.0 °F - 69.8 °F 78% 29.80 in 4.3 mi NNW 3.5 mph - N/A   Mostly Cloudy
4:30 AM 77.0 °F - 69.8 °F 78% 29.80 in 4.3 mi NNW 3.5 mph - N/A   Mostly Cloudy
5:00 AM 77.0 °F - 69.8 °F 78% 29.83 in 3.1 mi NNW 3.5 mph - N/A   Mostly Cloudy
5:30 AM 77.0 °F - 69.8 °F 78% 29.83 in 3.1 mi North 3.5 mph - N/A   Mostly Cloudy
6:00 AM 77.0 °F - 68.0 °F 74% 29.83 in 3.1 mi North 5.8 mph - N/A   Mostly Cloudy
6:30 AM 77.0 °F - 68.0 °F 74% 29.83 in - North - - N/A   Mostly Cloudy
7:00 AM 76 °F - 68 °F 71% 29.85 in 3 mi North 4.6 mph - -   Mist
7:00 AM 77.0 °F - 68.0 °F 74% 29.83 in - North - - N/A   Mostly Cloudy
7:30 AM 77.0 °F - 68.0 °F 74% 29.83 in 3.1 mi North 5.8 mph - N/A   Mostly Cloudy
8:00 AM 78.8 °F - 68.0 °F 69% 29.86 in 3.1 mi North 4.6 mph - N/A   Mostly Cloudy
8:30 AM 78.8 °F - 66.2 °F 65% 29.89 in 3.7 mi WNW 5.8 mph - N/A   Scattered Clouds
9:00 AM 82.4 °F 84.6 °F 66.2 °F 58% 29.89 in 4.3 mi WNW 3.5 mph - N/A   Scattered Clouds
9:30 AM 82.4 °F 84.6 °F 66.2 °F 58% 29.89 in 5.0 mi ENE 4.6 mph - N/A   Scattered Clouds
10:00 AM 84.2 °F 86.6 °F 66.2 °F 55% 29.89 in 5.6 mi SSE 5.8 mph - N/A   Scattered Clouds
10:30 AM 86.0 °F 88.2 °F 66.2 °F 51% 29.89 in 6.2 mi SSE 3.5 mph - N/A   Scattered Clouds
11:00 AM 86.0 °F 88.2 °F 66.2 °F 51% 29.86 in 6.2 mi NNW 2.3 mph - N/A   Scattered Clouds
11:30 AM 86.0 °F 88.2 °F 66.2 °F 51% 29.86 in 6.2 mi NNW 3.5 mph - N/A   Scattered Clouds
12:00 PM 87.8 °F 90.4 °F 66.2 °F 49% 29.83 in 6.2 mi NNW 3.5 mph - N/A   Scattered Clouds
12:30 PM 87.8 °F 90.4 °F 66.2 °F 49% 29.80 in 6.2 mi ENE 6.9 mph - N/A   Scattered Clouds
1:00 PM 89.6 °F 92.2 °F 66.2 °F 46% 29.80 in 6.2 mi SSE 4.6 mph - N/A   Scattered Clouds
1:30 PM 89.6 °F 92.2 °F 66.2 °F 46% 29.77 in 6.2 mi East 8.1 mph - N/A   Scattered Clouds
2:00 PM 89.6 °F 92.2 °F 66.2 °F 46% 29.77 in 6.2 mi East 3.5 mph - N/A   Scattered Clouds
2:30 PM 89.6 °F 91.1 °F 64.4 °F 43% 29.74 in 6.2 mi SSE 4.6 mph - N/A   Scattered Clouds
3:00 PM 91.4 °F 94.0 °F 66.2 °F 43% 29.74 in 6.2 mi ESE 10.4 mph - N/A   Scattered Clouds
3:30 PM 89.6 °F 92.2 °F 66.2 °F 46% 29.74 in 6.2 mi ESE 6.9 mph - N/A   Scattered Clouds
4:00 PM 91.4 °F 94.0 °F 66.2 °F 43% 29.74 in 6.2 mi ESE 5.8 mph - N/A   Scattered Clouds
4:30 PM 89.6 °F 92.2 °F 66.2 °F 46% 29.74 in 6.2 mi ESE 6.9 mph - N/A   Scattered Clouds
5:00 PM 89.6 °F 92.2 °F 66.2 °F 46% 29.74 in 6.2 mi East 3.5 mph - N/A   Scattered Clouds
5:30 PM 87.8 °F 90.4 °F 66.2 °F 49% 29.74 in 6.2 mi East 4.6 mph - N/A   Scattered Clouds
6:00 PM 86.0 °F 88.2 °F 66.2 °F 51% 29.74 in 6.2 mi ESE 2.3 mph - N/A   Scattered Clouds
6:30 PM 86.0 °F 88.2 °F 66.2 °F 51% 29.74 in 6.2 mi ESE 3.5 mph - N/A   Scattered Clouds
7:00 PM 86 °F - 66 °F 42% 29.77 in 6 mi Calm Calm - -   Scattered Clouds
7:00 PM 86.0 °F 88.2 °F 66.2 °F 51% 29.74 in 6.2 mi Calm Calm - N/A   Scattered Clouds
7:30 PM 86.0 °F 88.2 °F 66.2 °F 51% 29.77 in 6.2 mi NNW 4.6 mph - N/A   Scattered Clouds
8:00 PM 84.2 °F 86.6 °F 66.2 °F 55% 29.77 in 6.2 mi NNW 6.9 mph - N/A   Scattered Clouds
8:30 PM 86.0 °F 88.2 °F 66.2 °F 51% 29.80 in 6.2 mi NNW 5.8 mph - N/A   Scattered Clouds
9:00 PM 84.2 °F 86.6 °F 66.2 °F 55% 29.80 in 6.2 mi North 6.9 mph - N/A   Scattered Clouds
9:30 PM 84.2 °F 86.6 °F 66.2 °F 55% 29.80 in 6.2 mi WNW 6.9 mph - N/A   Scattered Clouds
10:00 PM 84.2 °F 87.3 °F 68.0 °F 58% 29.80 in 6.2 mi North 6.9 mph - N/A   Scattered Clouds
10:30 PM 84.2 °F 87.3 °F 68.0 °F 58% 29.80 in 6.2 mi North 4.6 mph - N/A   Scattered Clouds
11:00 PM 84.2 °F 87.3 °F 68.0 °F 58% 29.80 in 6.2 mi North 5.8 mph - N/A   Scattered Clouds
11:30 PM 82.4 °F 85.4 °F 68.0 °F 62% 29.80 in 6.2 mi North 6.9 mph - N/A   Scattered Clouds